FW3943 Weather Reports


Display with metric or nautical units.
time (UTC)temp
F
wind
direction
speed
MPH
gust
MPH
rain 1hr
in
rain 24hr
in
rain mn
in
humidity
%
barometer
mb
20260505041516 44 246 4.0 9.0 0.00 0.24 0.00 100 1007.8
20260505040014 44 202 4.0 9.0 0.00 0.24 0.00 100 1007.6
20260505034512 44 237 6.0 10.0 0.00 0.26 0.00 100 1007.5
20260505033010 45 229 7.0 13.0 0.00 0.26 0.00 100 1007.3
20260505031509 45 205 7.0 15.0 0.00 0.26 0.00 100 1007.0
20260505030003 45 235 9.0 14.0 0.00 0.26 0.00 100 1006.4
20260505024503 45 219 9.0 15.0 0.00 0.28 0.26 100 1006.6
20260505023001 45 215 8.0 12.0 0.00 0.28 0.26 100 1006.2
20260505021600 45 207 7.0 13.0 0.00 0.28 0.26 100 1006.2
20260505020100 46 202 8.0 15.0 0.00 0.28 0.26 100 1006.0
20260505014557 45 218 6.0 10.0 0.00 0.28 0.26 100 1006.0
20260505013058 46 226 4.0 11.0 0.00 0.28 0.26 100 1005.9
20260505011610 46 215 5.0 12.0 0.00 0.28 0.26 100 1005.9
20260505010053 47 213 5.0 10.0 0.00 0.28 0.26 100 1005.7
20260505004555 47 198 5.0 9.0 0.00 0.30 0.26 100 1005.6
20260505003054 48 166 4.0 12.0 0.00 0.30 0.26 100 1005.4
20260505001604 48 197 7.0 14.0 0.00 0.30 0.26 100 1005.4
20260505000104 49 228 4.0 11.0 0.00 0.30 0.26 100 1005.4
20260504234546 49 216 3.0 8.0 0.00 0.33 0.26 100 1004.9
20260504233102 48 208 8.0 14.0 0.00 0.33 0.26 100 1004.6
20260504231545 46 156 4.0 10.0 0.00 0.33 0.26 100 1004.5
20260504230043 47 188 8.0 14.0 0.00 0.33 0.26 100 1004.5
20260504224542 51 217 9.0 15.0 0.00 0.41 0.26 100 1004.2
20260504223037 55 229 9.0 18.0 0.00 0.41 0.26 100 1003.7
20260504221536 56 242 10.0 25.0 0.00 0.41 0.26 100 1003.7
20260504220035 56 227 9.0 24.0 0.00 0.41 0.26 100 1003.5
20260504214534 56 257 14.0 25.0 0.00 0.56 0.26 100 1003.5
20260504213037 56 233 12.0 18.0 0.00 0.56 0.26 100 1003.3
20260504211531 56 250 10.0 22.0 0.00 0.56 0.26 100 1003.2
20260504210031 56 248 14.0 25.0 0.00 0.56 0.26 100 1003.0
20260504204530 56 252 16.0 25.0 0.00 0.64 0.26 100 1002.7
20260504203027 56 237 9.0 24.0 0.00 0.64 0.26 100 1002.6
20260504201525 56 241 11.0 23.0 0.00 0.64 0.26 100 1002.5
20260504200023 56 248 15.0 23.0 0.00 0.64 0.26 100 1002.3
20260504194527 56 240 17.0 31.0 0.00 0.68 0.26 100 1001.7
20260504193020 55 215 14.0 25.0 0.00 0.68 0.26 100 1001.3
20260504191520 56 286 14.0 25.0 0.00 0.68 0.26 100 1001.1
20260504190018 55 276 17.0 27.0 0.00 0.68 0.26 100 1001.1
20260504184513 54 283 18.0 29.0 0.00 0.71 0.26 100 1000.9
20260504183013 54 232 15.0 25.0 0.00 0.71 0.26 100 1001.0
20260504181511 54 290 17.0 28.0 0.00 0.71 0.26 100 1000.9
20260504180007 53 251 14.0 25.0 0.00 0.71 0.26 100 1000.9
20260504174509 52 231 15.0 31.0 0.00 0.71 0.26 100 1000.8
20260504173005 52 225 13.0 32.0 0.00 0.71 0.26 100 1000.7
20260504171601 50 272 19.0 30.0 0.00 0.71 0.26 100 1000.5
20260504171501 50 283 17.0 30.0 0.00 0.71 0.26 100 1000.6
20260504170158 50 233 16.0 31.0 0.00 0.71 0.26 100 1000.3
20260504120105 39 270 22.0 38.0 0.04 0.69 0.24 100 992.3
20260504081518 37 258 16.0 34.0 0.02 0.56 0.11 100 982.2
20260504044542 39 204 14.0 27.0 0.01 0.48 0.03 100 975.6
20260504043049 39 200 11.0 23.0 0.01 0.48 0.03 100 974.9